Погода в Бомбиньясе

Бразилия     27°08′56″S   48°29′26″W
темп.,
°C
ветер,
м/с
пор.,
м/с
влажн.,
%
обл.,
%
осадки,
мм/ч
давл.,
гПа
погр.,
м
26 февраля, пт
пт2600:00+23ююв577769 0.0 1015764
03:00+23ю577671 0.0 1014762
06:00+22ю577925 0.1 1014713
09:00+25ююв687129 0.1 10161046
12:00+25юв78682 0.0 10161068
15:00+26ююв78691 0.0 10151052
18:00+25ююв810775 0.1 1014980
21:00+24ююв69836 0.6 1017748
27 февраля, сб
сб2700:00+24ююв578334 0.5 1016697
03:00+24ююв578444 1.4 1015680
06:00+24юв688543 3.6 1015689
09:00+25юв688343 8.4 1017862
12:00+25юв710839 6.4 10171011
15:00+25юв912839 12.3 10161093
18:00+25юв9128356 3.8 10161079
21:00+24юв9138374 7.6 10171060
28 февраля, вс
вс2800:00+25юв9128273 2.8 10171081
03:00+24вюв578561 5.6 1014659
06:00+23вюв358633 3.4 1015455
09:00+24всв238459 12.1 1015239
12:00+25юв238061 7.3 1015356
15:00+26юв457860 11.1 1014654
18:00+25ююв3479100 1.4 1013515
21:00+24зюз2384100 3.8 1014240
1 марта, пн
пн100:00+23зсз2290100 3.0 1014176
03:00+22сз3588100 4.1 1012337
06:00+22зюз339079 0.1 1013159
09:00+24юз128358 0.1 1013220
12:00+26всв437734 0.0 1012413
15:00+26всв457417 0.3 1010511
18:00+26всв347635 0.2 1010568
21:00+25с458568 6.6 1012300
2 марта, вт
вт200:00+23с71092100 5.1 1013517
03:00+23с81091100 6.6 1011656
06:00+23сз459192 0.4 1011397
09:00+24сз478585 0.5 1013594
12:00+26ссв568037 0.1 1012616
15:00+27ссв678069 0.9 1010638
18:00+26ссв3483100 0.2 1010437
21:00+25с4687100 0.9 1012478